Weather History for KAVL - November, 2008

Change the Weather History Date:

Friday, November 28, 2008

  Actual Average Record
Temperature  
Mean Temperature 43 °F 44 °F  
Max Temperature 57 °F 54 °F 72 °F (1970)
Min Temperature 29 °F 33 °F 12 °F (1936)
Degree Days  
Heating Degree Days 22 22  
Month to date heating degree days 603 488  
Since 1 July heating degree days 969 823  
Cooling Degree Days 0 0  
Month to date cooling degree days 0 0  
Year to date cooling degree days 875 862  
Moisture  
Dew Point 33 °F    
Average Humidity 70    
Maximum Humidity 92    
Minimum Humidity 47    
Precipitation  
Precipitation 0.00 in 0.14 in 2.59 in (2011)
Month to date precipitation 1.13 3.37  
Year to date precipitation 30.41 41.70  
Snow  
Snow 0.00 in 0.00 in 2.00 in (1876)
Month to date snowfall T 0.1  
Since 1 July snowfall T 0.1  
Since 1 September snowfall T 0.1  
Snow Depth -    
Sea Level Pressure  
Sea Level Pressure 29.95 in    
Wind  
Wind Speed 5 mph (NNW)    
Max Wind Speed 15 mph    
Max Gust Speed 18 mph    
Visibility 10 miles    
Events      
T = Trace of Precipitation, MM = Missing Value Source: NWS Daily Summary

Daily Weather History Graph

Daily Weather History Graph

Search for Another Location

Airport or City:

Trip Planner

Search our weather history database for the weather conditions in past years. The results will help you decide how hot, cold, wet, or windy it might be!

Date:

Astronomy

Nov. 28, 2008 Rise Set
Actual Time 7:18 AM EST 5:17 PM EST
Civil Twilight 6:50 AM EST 5:45 PM EST
Nautical Twilight 6:19 AM EST 6:17 PM EST
Astronomical Twilight 5:48 AM EST 6:47 PM EST
Moon 8:20 AM EST (11/28) 5:49 PM EST (11/28)
Length of Visible Light 10h 54m
Length of Day
9h 59m
New Moon, 1% of the Moon is Illuminated
Nov 28
New Moon
Dec 5
First Quarter
Dec 12
Full
Dec 19
Last Quarter
Dec 27
New

Hourly Weather History & Observations

Time (EST) Temp. Windchill Dew Point Humidity Pressure Visibility Wind Dir Wind Speed Gust Speed Precip Events Conditions
12:54 AM 32.0 °F - 27.0 °F 82% 29.98 in 10.0 mi Calm Calm - N/A   Clear
1:54 AM 30.0 °F - 27.0 °F 88% 29.97 in 10.0 mi Calm Calm - N/A   Clear
2:54 AM 32.0 °F - 28.0 °F 85% 29.97 in 10.0 mi Calm Calm - N/A   Clear
3:54 AM 34.0 °F 29.8 °F 28.9 °F 82% 29.96 in 10.0 mi NNW 4.6 mph - N/A   Clear
4:54 AM 30.9 °F - 28.0 °F 89% 29.98 in 10.0 mi Calm Calm - N/A   Clear
5:54 AM 34.0 °F 29.8 °F 30.0 °F 85% 29.98 in 10.0 mi NNW 4.6 mph - N/A   Clear
6:54 AM 33.1 °F - 30.0 °F 89% 29.99 in 10.0 mi Calm Calm - N/A   Clear
7:54 AM 35.1 °F - 30.9 °F 85% 30.00 in 10.0 mi Calm Calm - N/A   Clear
8:54 AM 36.0 °F - 30.9 °F 82% 30.02 in 10.0 mi Calm Calm - N/A   Clear
9:54 AM 45.0 °F - 37.0 °F 74% 30.02 in 10.0 mi Calm Calm - N/A   Clear
10:54 AM 51.1 °F - 39.9 °F 66% 30.00 in 10.0 mi NNW 13.8 mph - N/A   Clear
11:54 AM 54.0 °F - 39.0 °F 57% 29.98 in 10.0 mi NNW 10.4 mph - N/A   Clear
12:54 PM 55.0 °F - 37.0 °F 51% 29.94 in 10.0 mi NNW 9.2 mph - N/A   Clear
1:54 PM 55.9 °F - 36.0 °F 47% 29.91 in 10.0 mi North 5.8 mph - N/A   Clear
2:54 PM 55.9 °F - 35.1 °F 45% 29.89 in 10.0 mi North 4.6 mph - N/A   Clear
3:54 PM 55.9 °F - 36.0 °F 47% 29.89 in 10.0 mi NNW 12.7 mph - N/A   Mostly Cloudy
4:54 PM 54.0 °F - 35.1 °F 49% 29.92 in 10.0 mi NNW 10.4 mph - N/A   Partly Cloudy
5:54 PM 51.1 °F - 35.1 °F 54% 29.93 in 10.0 mi NNW 10.4 mph - N/A   Clear
6:54 PM 48.9 °F - 35.1 °F 59% 29.95 in 10.0 mi NW 10.4 mph - N/A   Clear
7:54 PM 48.0 °F - 35.1 °F 61% 29.94 in 10.0 mi NNW 10.4 mph - N/A   Clear
8:54 PM 48.0 °F - 34.0 °F 58% 29.94 in 10.0 mi North 6.9 mph - N/A   Clear
9:54 PM 48.0 °F - 33.1 °F 56% 29.91 in 10.0 mi Calm Calm - N/A   Clear
10:54 PM 46.0 °F 43.1 °F 34.0 °F 63% 29.91 in 10.0 mi NNW 5.8 mph - N/A   Clear
11:54 PM 45.0 °F - 34.0 °F 65% 29.89 in 10.0 mi Calm Calm - N/A   Mostly Cloudy